TimeEDT,TemperatureF,Dew PointF,Humidity,Sea Level PressureIn,VisibilityMPH,Wind Direction,Wind SpeedMPH,Gust SpeedMPH,PrecipitationIn,Events,Conditions,WindDirDegrees,DateUTC
12:15 AM,48.2,41.0,76,29.71,10.0,SSW,16.1,21.9,N/A,,Overcast,210,2012-10-20 04:15:00
12:35 AM,46.4,39.2,76,29.72,10.0,SW,13.8,20.7,N/A,,Overcast,220,2012-10-20 04:35:00
12:55 AM,46.4,39.2,76,29.73,10.0,SW,12.7,20.7,N/A,,Overcast,230,2012-10-20 04:55:00
1:15 AM,46.4,39.2,76,29.73,10.0,SW,10.4,-,N/A,,Overcast,230,2012-10-20 05:15:00
1:35 AM,46.4,39.2,76,29.72,10.0,South,8.1,-,N/A,,Overcast,190,2012-10-20 05:35:00
1:55 AM,46.4,39.2,76,29.72,10.0,SSW,8.1,17.3,N/A,,Overcast,200,2012-10-20 05:55:00
2:15 AM,46.4,39.2,76,29.73,10.0,SSW,8.1,-,N/A,,Overcast,210,2012-10-20 06:15:00
2:35 AM,46.4,39.2,76,29.73,10.0,SSW,9.2,-,N/A,,Overcast,210,2012-10-20 06:35:00
2:55 AM,46.4,39.2,76,29.74,10.0,South,6.9,-,N/A,,Overcast,180,2012-10-20 06:55:00
3:15 AM,46.4,39.2,76,29.74,10.0,SSW,5.8,-,N/A,,Overcast,200,2012-10-20 07:15:00
3:35 AM,46.4,39.2,76,29.74,10.0,SSW,8.1,-,N/A,,Overcast,200,2012-10-20 07:35:00
3:55 AM,46.4,39.2,76,29.74,10.0,South,8.1,-,N/A,,Overcast,190,2012-10-20 07:55:00
4:15 AM,46.4,39.2,76,29.74,10.0,South,9.2,-,N/A,,Overcast,190,2012-10-20 08:15:00
4:35 AM,46.4,39.2,76,29.74,10.0,SSW,8.1,-,N/A,,Overcast,200,2012-10-20 08:35:00
4:55 AM,46.4,39.2,76,29.74,10.0,South,9.2,-,N/A,,Overcast,190,2012-10-20 08:55:00
5:15 AM,46.4,39.2,76,29.74,10.0,SSW,6.9,-,N/A,,Overcast,200,2012-10-20 09:15:00
5:35 AM,46.4,39.2,76,29.74,10.0,SSW,8.1,-,N/A,,Overcast,200,2012-10-20 09:35:00
5:55 AM,44.6,39.2,81,29.74,9.0,SSW,8.1,-,N/A,,Overcast,200,2012-10-20 09:55:00
6:15 AM,44.6,41.0,87,29.74,8.0,South,6.9,-,0.01,,Overcast,180,2012-10-20 10:15:00
6:35 AM,44.6,41.0,87,29.74,10.0,South,8.1,-,0.01,,Mostly Cloudy,190,2012-10-20 10:35:00
6:55 AM,44.6,41.0,87,29.74,10.0,SW,11.5,17.3,0.01,,Overcast,220,2012-10-20 10:55:00
7:15 AM,44.6,41.0,87,29.74,10.0,SSW,6.9,-,N/A,,Mostly Cloudy,200,2012-10-20 11:15:00
7:35 AM,44.6,41.0,87,29.75,10.0,SSW,10.4,-,N/A,,Overcast,210,2012-10-20 11:35:00
7:55 AM,44.6,41.0,87,29.74,10.0,SW,10.4,-,N/A,,Overcast,230,2012-10-20 11:55:00
8:15 AM,44.6,41.0,87,29.75,10.0,SW,10.4,-,N/A,,Overcast,230,2012-10-20 12:15:00
8:35 AM,44.6,41.0,87,29.75,10.0,SW,10.4,-,N/A,,Overcast,220,2012-10-20 12:35:00
8:55 AM,46.4,41.0,81,29.75,10.0,SW,12.7,19.6,N/A,,Overcast,220,2012-10-20 12:55:00
9:15 AM,46.4,41.0,81,29.75,10.0,SW,12.7,20.7,N/A,,Overcast,220,2012-10-20 13:15:00
9:35 AM,46.4,41.0,81,29.76,10.0,SW,12.7,21.9,N/A,,Overcast,220,2012-10-20 13:35:00
9:55 AM,48.2,42.8,82,29.76,10.0,SW,18.4,26.5,N/A,,Overcast,230,2012-10-20 13:55:00
10:15 AM,46.4,39.2,76,29.77,10.0,SW,10.4,21.9,N/A,,Overcast,220,2012-10-20 14:15:00
10:35 AM,48.2,39.2,71,29.78,10.0,SW,10.4,21.9,N/A,,Overcast,220,2012-10-20 14:35:00
10:55 AM,48.2,39.2,71,29.78,10.0,SW,11.5,-,N/A,,Mostly Cloudy,230,2012-10-20 14:55:00
11:15 AM,48.2,39.2,71,29.78,10.0,WSW,19.6,25.3,N/A,,Overcast,240,2012-10-20 15:15:00
11:35 AM,48.2,39.2,71,29.79,10.0,SW,9.2,-,N/A,,Mostly Cloudy,230,2012-10-20 15:35:00
11:55 AM,48.2,39.2,71,29.79,10.0,SW,11.5,21.9,0.01,,Mostly Cloudy,220,2012-10-20 15:55:00
12:15 PM,48.2,39.2,71,29.79,10.0,SW,9.2,-,N/A,,Overcast,230,2012-10-20 16:15:00
12:35 PM,48.2,39.2,71,29.80,10.0,WSW,10.4,18.4,N/A,,Overcast,250,2012-10-20 16:35:00
12:55 PM,46.4,41.0,81,29.80,7.0,WSW,11.5,-,N/A,,Overcast,240,2012-10-20 16:55:00
1:15 PM,46.4,42.8,87,29.80,10.0,WSW,10.4,16.1,0.01,,Overcast,240,2012-10-20 17:15:00
1:35 PM,48.2,42.8,82,29.80,8.0,SW,10.4,-,0.01,,Overcast,220,2012-10-20 17:35:00
1:55 PM,46.4,42.8,87,29.79,7.0,WSW,8.1,-,0.02,,Overcast,250,2012-10-20 17:55:00
2:15 PM,48.2,42.8,82,29.79,10.0,WSW,12.7,20.7,0.01,,Overcast,240,2012-10-20 18:15:00
2:35 PM,48.2,41.0,76,29.80,10.0,WSW,13.8,-,0.01,,Overcast,240,2012-10-20 18:35:00
2:55 PM,48.2,41.0,76,29.80,10.0,SW,11.5,16.1,0.01,,Overcast,230,2012-10-20 18:55:00
3:15 PM,50.0,41.0,71,29.80,10.0,SW,11.5,-,N/A,,Overcast,230,2012-10-20 19:15:00
3:35 PM,51.8,41.0,67,29.80,10.0,WSW,9.2,17.3,N/A,,Overcast,250,2012-10-20 19:35:00
3:55 PM,51.8,39.2,62,29.80,10.0,SW,10.4,-,N/A,,Overcast,230,2012-10-20 19:55:00
4:15 PM,51.8,41.0,67,29.80,10.0,SW,10.4,-,N/A,,Overcast,220,2012-10-20 20:15:00
4:35 PM,51.8,39.2,62,29.80,10.0,SW,13.8,-,N/A,,Mostly Cloudy,220,2012-10-20 20:35:00
4:55 PM,50.0,37.4,62,29.82,10.0,SW,12.7,17.3,N/A,,Mostly Cloudy,230,2012-10-20 20:55:00
5:15 PM,50.0,37.4,62,29.83,10.0,WSW,12.7,18.4,N/A,,Overcast,240,2012-10-20 21:15:00
5:35 PM,50.0,37.4,62,29.83,10.0,WSW,12.7,17.3,N/A,,Overcast,240,2012-10-20 21:35:00
5:55 PM,50.0,37.4,62,29.84,10.0,WSW,13.8,-,N/A,,Overcast,240,2012-10-20 21:55:00
6:15 PM,50.0,39.2,66,29.84,10.0,WSW,8.1,-,N/A,,Overcast,250,2012-10-20 22:15:00
6:35 PM,50.0,39.2,66,29.84,10.0,WSW,6.9,-,N/A,,Overcast,240,2012-10-20 22:35:00
6:55 PM,48.2,39.2,71,29.85,10.0,WSW,5.8,-,N/A,,Overcast,240,2012-10-20 22:55:00
7:15 PM,48.2,39.2,71,29.86,10.0,WSW,8.1,-,N/A,,Overcast,240,2012-10-20 23:15:00
7:35 PM,50.0,37.4,62,29.87,10.0,WSW,15.0,20.7,N/A,,Overcast,250,2012-10-20 23:35:00
7:55 PM,50.0,37.4,62,29.88,10.0,WSW,8.1,16.1,N/A,,Overcast,250,2012-10-20 23:55:00
8:15 PM,50.0,37.4,62,29.89,10.0,WSW,6.9,-,N/A,,Overcast,240,2012-10-21 00:15:00
8:35 PM,48.2,37.4,66,29.89,10.0,SW,5.8,-,N/A,,Overcast,230,2012-10-21 00:35:00
8:55 PM,48.2,37.4,66,29.90,10.0,SW,10.4,-,N/A,,Overcast,230,2012-10-21 00:55:00
9:15 PM,48.2,37.4,66,29.90,10.0,SW,5.8,-,N/A,,Overcast,230,2012-10-21 01:15:00
9:35 PM,48.2,37.4,66,29.91,10.0,SW,6.9,-,N/A,,Overcast,230,2012-10-21 01:35:00
9:55 PM,48.2,37.4,66,29.91,10.0,WSW,8.1,-,N/A,,Overcast,240,2012-10-21 01:55:00
10:15 PM,48.2,37.4,66,29.92,10.0,SW,6.9,-,N/A,,Overcast,230,2012-10-21 02:15:00
10:35 PM,48.2,37.4,66,29.92,10.0,SW,8.1,-,N/A,,Overcast,220,2012-10-21 02:35:00
10:55 PM,48.2,37.4,66,29.92,10.0,SW,8.1,-,N/A,,Overcast,230,2012-10-21 02:55:00
11:15 PM,48.2,37.4,66,29.93,10.0,WSW,10.4,-,N/A,,Overcast,240,2012-10-21 03:15:00
11:35 PM,46.4,37.4,71,29.93,10.0,WSW,8.1,-,N/A,,Overcast,250,2012-10-21 03:35:00
11:55 PM,46.4,37.4,71,29.94,10.0,WSW,9.2,-,N/A,,Overcast,240,2012-10-21 03:55:00